FW7745 Weather Reports


time (UTC)temp
C
wind
direction
speed
KPH
gust
KPH
rain 1hr
cm
rain 24hr
cm
rain mn
cm
humidity
%
barometer
mb
20260504150756 19 248 6.4 8.0 0.00 0.00 0.00 44 1015.9
20260504150253 20 279 1.6 3.2 0.00 0.00 0.00 43 1016.1
20260504141223 17 271 4.8 8.0 0.00 0.00 0.00 49 1016.4
20260504140720 17 217 1.6 1.6 0.00 0.00 0.00 50 1016.4
20260504140215 16 266 0.0 1.6 0.00 0.00 0.00 51 1016.5
20260504130643 14 232 3.2 3.2 0.00 0.00 0.00 57 1016.9
20260504130140 13 182 11.3 11.3 0.00 0.00 0.00 58 1017.0
20260504120104 12 158 6.4 9.7 0.00 0.00 0.00 60 1017.3
20260504110531 11 204 4.8 8.0 0.00 0.00 0.00 61 1017.4
20260504100453 11 175 4.8 8.0 0.00 0.00 0.00 60 1017.1
20260504081847 12 215 1.6 3.2 0.00 0.00 0.00 56 1017.7
20260504081343 12 219 4.8 4.8 0.00 0.00 0.00 56 1017.7
20260504080838 12 243 0.0 1.6 0.00 0.00 0.00 56 1017.5
20260504080337 12 222 0.0 1.6 0.00 0.00 0.00 56 1017.6
20260504070304 12 198 0.0 1.6 0.00 0.00 0.00 57 1017.4
20260504060224 12 167 3.2 3.2 0.00 0.00 0.00 56 1018.2
20260504050652 12 205 1.6 3.2 0.00 0.00 0.00 56 1018.1
20260504050149 12 192 1.6 3.2 0.00 0.00 0.00 56 1018.0
20260504045646 12 206 1.6 3.2 0.00 0.00 0.00 55 1017.7
20260504045146 12 192 1.6 3.2 0.00 0.00 0.00 55 1017.8
20260504044644 12 185 1.6 3.2 0.00 0.00 0.00 55 1017.7
20260504044141 12 198 3.2 3.2 0.00 0.00 0.00 54 1017.8
20260504043638 12 221 3.2 4.8 0.00 0.00 0.00 54 1018.0
20260504043135 12 213 3.2 3.2 0.00 0.00 0.00 54 1017.8
20260504042632 12 219 4.8 4.8 0.00 0.00 0.00 54 1017.9
20260504042129 11 200 4.8 8.0 0.00 0.00 0.00 53 1017.7
20260504041625 11 195 1.6 1.6 0.00 0.00 0.00 53 1017.7
20260504041121 12 170 1.6 4.8 0.00 0.00 0.00 53 1017.8
20260504040618 12 167 4.8 4.8 0.00 0.00 0.00 52 1018.0
20260504040115 12 190 1.6 3.2 0.00 0.00 0.00 52 1018.0
20260504035612 12 225 3.2 3.2 0.00 0.00 0.00 52 1017.9
20260504035108 12 210 1.6 1.6 0.00 0.00 0.00 52 1017.8
20260504034606 12 229 3.2 3.2 0.00 0.00 0.00 51 1017.7
20260504034103 12 259 0.0 0.0 0.00 0.00 0.00 51 1017.8
20260504033601 12 266 0.0 0.0 0.00 0.00 0.00 50 1017.7
20260504033058 12 221 0.0 0.0 0.00 0.00 0.00 50 1017.6
20260504032555 12 204 0.0 1.6 0.00 0.00 0.00 49 1017.6
20260504032052 12 187 1.6 1.6 0.00 0.00 0.00 48 1017.6
20260504031549 12 193 1.6 1.6 0.00 0.00 0.00 48 1017.5
20260504031045 12 196 0.0 0.0 0.00 0.00 0.00 47 1017.6
20260504030542 12 214 3.2 4.8 0.00 0.00 0.00 46 1017.6
20260504030038 13 188 3.2 3.2 0.00 0.00 0.00 46 1017.5
20260504025535 13 207 4.8 4.8 0.00 0.00 0.00 46 1017.3
20260504025032 13 182 3.2 3.2 0.00 0.00 0.00 46 1017.4
20260504024529 13 196 3.2 3.2 0.00 0.00 0.00 45 1017.5
20260504024026 13 221 3.2 3.2 0.00 0.00 0.00 45 1017.5
20260504023523 13 192 4.8 4.8 0.00 0.00 0.00 45 1017.1
20260504023018 13 197 1.6 1.6 0.00 0.00 0.00 45 1017.4
20260504022514 13 182 4.8 4.8 0.00 0.00 0.00 45 1017.4
20260504022011 13 191 3.2 3.2 0.00 0.00 0.00 44 1017.2
20260504021509 13 199 0.0 0.0 0.00 0.00 0.00 44 1017.2
20260504021005 13 217 0.0 0.0 0.00 0.00 0.00 44 1017.2
20260504020502 13 226 0.0 0.0 0.00 0.00 0.00 43 1017.0
20260504015959 14 208 1.6 1.6 0.00 0.00 0.00 42 1017.2
20260504015455 14 212 3.2 3.2 0.00 0.00 0.00 42 1017.0
20260504014951 14 171 1.6 1.6 0.00 0.00 0.00 42 1017.1
20260504014447 13 192 4.8 4.8 0.00 0.00 0.00 42 1017.0
20260504013944 14 190 0.0 0.0 0.00 0.00 0.00 43 1017.1
20260504013443 15 164 1.6 1.6 0.00 0.00 0.00 42 1017.1
20260504012938 15 164 3.2 3.2 0.00 0.00 0.00 41 1017.0
20260504012437 15 215 3.2 3.2 0.00 0.00 0.00 41 1016.9
20260504011934 15 179 1.6 3.2 0.00 0.00 0.00 41 1017.0
20260504011431 15 206 1.6 3.2 0.00 0.00 0.00 40 1016.8
20260504010926 15 190 3.2 3.2 0.00 0.00 0.00 40 1016.7
20260504010422 15 228 0.0 1.6 0.00 0.00 0.00 39 1016.7
20260504005919 15 212 1.6 3.2 0.00 0.00 0.00 39 1016.9
20260504005415 15 243 0.0 0.0 0.00 0.00 0.00 38 1016.6
20260504004913 15 238 0.0 0.0 0.00 0.00 0.00 37 1016.5
20260504004411 15 167 1.6 3.2 0.00 0.00 0.00 36 1016.6
20260504003908 15 252 1.6 1.6 0.00 0.00 0.00 35 1016.8
20260504003404 15 253 1.6 1.6 0.00 0.00 0.00 35 1016.6
20260504002900 15 237 0.0 1.6 0.00 0.00 0.00 35 1016.6
20260504002358 15 221 3.2 4.8 0.00 0.00 0.00 34 1016.5
20260504001855 16 248 3.2 3.2 0.00 0.00 0.00 34 1016.5
20260504001352 16 296 1.6 1.6 0.00 0.00 0.00 33 1016.3
20260504000849 16 262 3.2 3.2 0.00 0.00 0.00 33 1016.3
20260504000346 16 252 4.8 8.0 0.00 0.00 0.00 33 1016.3
20260503235844 16 242 6.4 8.0 0.00 0.00 0.00 33 1016.4
20260503235341 16 261 3.2 3.2 0.00 0.00 0.00 33 1016.3
20260503234838 16 238 4.8 4.8 0.00 0.00 0.00 33 1016.3
20260503234336 16 226 4.8 8.0 0.00 0.00 0.00 33 1016.0
20260503233834 16 242 3.2 8.0 0.00 0.00 0.00 32 1016.2
20260503233329 16 279 4.8 8.0 0.00 0.00 0.00 32 1015.9
20260503232826 16 7 1.6 1.6 0.00 0.00 0.00 32 1016.2
20260503232324 16 340 8.0 11.3 0.00 0.00 0.00 32 1016.1
20260503231821 16 311 3.2 3.2 0.00 0.00 0.00 32 1015.9
20260503231318 16 315 4.8 4.8 0.00 0.00 0.00 31 1016.0
20260503230814 17 263 1.6 3.2 0.00 0.00 0.00 31 1016.0
20260503230311 17 343 4.8 4.8 0.00 0.00 0.00 32 1015.9
20260503225809 17 225 8.0 14.5 0.00 0.00 0.00 31 1015.9
20260503225304 17 336 1.6 3.2 0.00 0.00 0.00 30 1015.9
20260503224801 17 311 1.6 1.6 0.00 0.00 0.00 30 1016.0
20260503224258 17 321 4.8 9.7 0.00 0.00 0.00 30 1016.1
20260503223756 18 281 4.8 4.8 0.00 0.00 0.00 29 1016.3
20260503223254 18 232 0.0 1.6 0.00 0.00 0.00 29 1016.4
20260503222749 18 309 3.2 4.8 0.00 0.00 0.00 29 1016.2
20260503222247 18 300 3.2 4.8 0.00 0.00 0.00 29 1016.1
20260503221745 18 10 4.8 8.0 0.00 0.00 0.00 29 1016.2
20260503221243 18 356 8.0 12.9 0.00 0.00 0.00 29 1016.4
20260503220740 18 211 1.6 1.6 0.00 0.00 0.00 30 1016.1
20260503220237 17 233 4.8 8.0 0.00 0.00 0.00 30 1016.2
20260503215733 17 251 4.8 4.8 0.00 0.00 0.00 30 1016.3
20260503215230 17 250 6.4 11.3 0.00 0.00 0.00 30 1016.3
20260503214729 17 256 8.0 11.3 0.00 0.00 0.00 30 1016.2
20260503214225 17 358 9.7 14.5 0.00 0.00 0.00 30 1016.4
20260503213723 17 242 8.0 11.3 0.00 0.00 0.00 30 1016.3
20260503213220 18 324 3.2 3.2 0.00 0.00 0.00 29 1016.5
20260503212716 17 190 4.8 9.7 0.00 0.00 0.00 29 1016.3
20260503212214 18 305 1.6 3.2 0.00 0.00 0.00 30 1016.3
20260503211711 18 350 3.2 3.2 0.00 0.00 0.00 30 1016.4
20260503211208 17 332 1.6 3.2 0.00 0.00 0.00 31 1016.0
20260503210704 17 312 8.0 12.9 0.00 0.00 0.00 31 1016.5
20260503210201 17 225 4.8 9.7 0.00 0.00 0.00 30 1016.7
20260503205656 18 325 8.0 9.7 0.00 0.00 0.00 31 1016.5
20260503205152 17 239 9.7 12.9 0.00 0.00 0.00 30 1016.4
20260503204649 17 319 3.2 4.8 0.00 0.00 0.00 31 1016.3
20260503204147 17 291 6.4 9.7 0.00 0.00 0.00 30 1016.2
20260503203644 17 321 3.2 4.8 0.00 0.00 0.00 30 1016.5
20260503203141 18 296 6.4 12.9 0.00 0.00 0.00 31 1016.5
20260503202638 17 308 4.8 8.0 0.00 0.00 0.00 32 1016.4
20260503202137 16 228 3.2 3.2 0.00 0.00 0.00 33 1016.6
20260503201634 17 279 12.9 16.1 0.00 0.00 0.00 31 1016.8
20260503201131 18 221 9.7 12.9 0.00 0.00 0.00 29 1016.7
20260503200628 18 332 3.2 3.2 0.00 0.00 0.00 30 1017.0
20260503200124 18 230 4.8 8.0 0.00 0.00 0.00 31 1016.9
20260503195621 17 348 4.8 4.8 0.00 0.00 0.00 32 1017.0
20260503195118 17 291 3.2 4.8 0.00 0.00 0.00 33 1016.9
20260503194615 17 309 6.4 8.0 0.00 0.00 0.00 32 1017.3
20260503194110 17 287 9.7 11.3 0.00 0.00 0.00 33 1017.4
20260503193607 17 234 4.8 8.0 0.00 0.00 0.00 33 1017.3
20260503193102 17 268 8.0 22.5 0.00 0.00 0.00 34 1017.5
20260503192558 16 70 4.8 8.0 0.00 0.00 0.00 34 1017.5
20260503192054 17 308 3.2 3.2 0.00 0.00 0.00 33 1017.5
20260503191551 17 16 6.4 9.7 0.00 0.00 0.00 34 1017.9
20260503191048 16 1 8.0 11.3 0.00 0.00 0.00 34 1017.7
20260503190545 17 71 3.2 8.0 0.00 0.00 0.00 34 1017.7
20260503190042 16 327 4.8 4.8 0.00 0.00 0.00 35 1017.8
20260503185539 16 35 8.0 11.3 0.00 0.00 0.00 35 1017.8
20260503185038 16 240 6.4 8.0 0.00 0.00 0.00 35 1018.1
20260503184535 15 356 4.8 4.8 0.00 0.00 0.00 36 1018.1
20260503184031 16 323 4.8 8.0 0.00 0.00 0.00 35 1017.9
20260503183528 16 301 8.0 11.3 0.00 0.00 0.00 34 1018.2
20260503183025 16 44 8.0 12.9 0.00 0.00 0.00 34 1018.2
20260503182524 16 339 4.8 4.8 0.00 0.00 0.00 35 1018.2
20260503182021 16 257 8.0 9.7 0.00 0.00 0.00 34 1018.2
20260503181518 15 273 14.5 16.1 0.00 0.00 0.00 35 1018.0
20260503181014 15 339 3.2 3.2 0.00 0.00 0.00 35 1018.1
20260503180512 16 44 6.4 8.0 0.00 0.00 0.00 34 1018.5
20260503180009 15 10 4.8 8.0 0.00 0.00 0.00 35 1018.3
20260503175506 15 326 6.4 12.9 0.00 0.00 0.00 36 1018.4
20260503175003 16 330 6.4 9.7 0.00 0.00 0.00 35 1018.5
20260503174500 15 280 1.6 3.2 0.00 0.00 0.00 36 1018.3
20260503173955 15 13 4.8 4.8 0.00 0.00 0.00 37 1018.5
20260503173451 15 271 6.4 11.3 0.00 0.00 0.00 35 1018.5
20260503172949 15 343 12.9 20.9 0.00 0.00 0.00 35 1018.6
20260503172446 15 291 3.2 4.8 0.00 0.00 0.00 35 1019.0
20260503171942 15 321 4.8 8.0 0.00 0.00 0.00 34 1018.7
20260503171439 15 227 6.4 9.7 0.00 0.00 0.00 35 1018.7
20260503170937 15 270 3.2 3.2 0.00 0.00 0.00 36 1018.7
20260503170432 15 275 4.8 8.0 0.00 0.00 0.00 36 1018.6